Date,TemperatureHighF,TemperatureAvgF,TemperatureLowF,DewpointHighF,DewpointAvgF,DewpointLowF,HumidityHigh,HumidityAvg,HumidityLow,PressureMaxIn,PressureMinIn,WindSpeedMaxMPH,WindSpeedAvgMPH,GustSpeedMaxMPH,PrecipitationSumIn
2013-1-1,37.8,31.3,26.5,35.2,29.6,24.9,95,93,91,30.20,30.05,0,0,0,0.00
2013-1-2,44.1,32.6,25.6,36.2,27.7,23.8,95,83,63,30.06,29.89,0,0,0,0.01
2013-1-3,43.6,32.9,23.2,33.3,27.5,20.8,93,81,63,29.90,29.79,0,0,0,0.10
2013-1-4,48.4,42.5,35.8,45.1,40.0,32.9,94,91,87,30.00,29.85,0,0,0,0.01
2013-1-5,44.5,40.8,38.7,40.8,38.0,36.8,94,90,85,29.90,29.80,0,0,0,0.11
2013-1-6,46.6,42.5,40.0,42.0,39.6,37.8,93,89,82,29.87,29.67,0,0,0,0.26
2013-1-7,49.9,45.2,41.0,48.2,43.2,38.9,95,93,86,29.86,29.51,0,0,0,0.61
2013-1-8,50.9,46.2,41.8,49.0,44.1,39.6,95,93,90,29.86,29.40,0,0,0,0.35
2013-1-9,50.6,40.5,33.8,48.1,38.5,32.0,94,93,90,29.65,29.36,0,0,0,1.14
2013-1-10,39.2,33.9,27.4,37.4,32.2,25.6,95,93,90,29.81,29.63,0,0,0,0.06
2013-1-11,34.0,27.5,21.4,31.9,25.7,19.6,95,93,91,30.03,29.80,0,0,0,0.00
2013-1-12,34.7,26.0,20.7,29.8,23.1,18.9,94,89,69,30.15,30.02,0,0,0,0.00
2013-1-13,35.1,26.4,18.0,30.8,23.5,15.8,93,89,79,30.19,30.13,0,0,0,0.00
2013-1-14,35.8,33.3,31.0,33.7,31.1,28.4,94,92,90,30.27,30.16,0,0,0,0.01
2013-1-15,42.5,34.5,26.6,37.0,31.3,24.2,94,88,72,30.40,30.26,0,0,0,0.01
2013-1-16,37.8,28.9,22.9,35.1,26.6,20.6,94,91,89,30.38,30.22,0,0,0,0.00
2013-1-17,35.5,30.1,26.3,33.6,28.4,24.3,94,93,92,30.23,29.99,0,0,0,0.00
2013-1-18,33.8,30.4,25.2,32.5,28.8,23.7,95,94,93,30.04,29.96,0,0,0,0.01
2013-1-19,33.8,31.6,28.6,32.5,30.3,27.1,95,95,94,30.08,30.03,0,0,0,0.00
2013-1-20,36.2,32.2,29.0,34.7,30.9,27.7,96,95,94,30.09,29.96,0,0,0,0.01
2013-1-21,34.2,31.2,29.3,32.9,30.0,28.3,96,95,94,29.96,29.82,0,0,0,0.00
2013-1-22,38.2,31.0,23.4,36.0,29.3,21.9,95,94,90,29.85,29.60,0,0,0,0.00
2013-1-23,41.2,38.5,34.2,39.7,36.9,32.9,95,94,90,29.83,29.52,0,0,0,0.43
2013-1-24,47.0,42.2,39.6,43.3,39.8,38.0,95,91,81,29.90,29.73,0,0,0,0.39
2013-1-25,51.3,45.1,38.7,46.5,42.4,36.3,93,90,84,29.75,29.62,0,0,0,0.00
2013-1-26,41.9,40.4,39.2,40.3,38.3,37.1,94,93,90,29.72,29.57,0,0,0,0.64
2013-1-27,43.4,40.3,38.3,41.5,38.6,36.7,95,94,93,29.74,29.68,0,0,0,0.56
2013-1-28,40.1,38.7,37.4,38.5,37.1,35.8,94,94,93,29.77,29.68,0,0,0,1.63
2013-1-29,43.9,41.6,38.7,42.6,40.2,37.1,96,95,93,30.03,29.77,0,0,0,0.84
2013-1-30,49.9,45.9,42.7,48.0,44.5,41.3,96,95,94,30.07,30.01,0,0,0,0.22
2013-1-31,50.4,46.5,44.6,47.8,44.9,43.2,96,94,90,30.08,29.99,0,0,0,0.09